Location: Bamobli
(6.6379°N, 10.9396°W)
Time: 20:06:02
(UTC+00:00)

USA 32 - Pass Details

Date: 07 June 2020
Orbit: 777 x 783 km, 85.0° (Epoch: 17 June)

Event Time Altitude Azimuth Distance (km) Brightness Sun altitude
Exits shadow 04:22:21 74° 60° (ENE) 809 4.1 -28.8°
Drops below altitude 10° 04:27:17 10° 6° (N) 2,320 6.9 -27.7°
Sets 04:29:37 0° 4° (N) 3,248 7.7 -27.2°
